www.pogodaiklimat.ru

Погода и климат >> Архив погоды >> Мексика >> Campeche


ПОГОДА в Campeche

  • Прогноз погоды в Campeche
  • Монитор погоды в Campeche
  • Климат города

АРХИВ ПОГОДЫ в Campeche

Время (UTC), дата Ветер
(напр.,м/с)
 
Видим.   Явления Облачность Т
(С)
Тd
(С)
f
(%)
Тe
(С)
Тes
(С)
Комфортность P
(гПа)
Po
(гПа)
Тmin
(С)
Tmax
(С)
R
(мм)
R24
(мм)
S
(см)
15 11.08 ЮВ 1 10 км 6/0
[As trans]
+31.0 +26.5 77 +47 +56 опасность
перегрева
1016.6 1016.0
18 11.08 В 4 10 км 4/3 630 м
[Cu med, cong]
+34.7 +28.4 70 +57 +66 опасность
перегрева
1015.4 1014.8 +22.3 +35.0
21 11.08 З 2 10 км 4/3 750 м
[Cu hum Ac trans]
+36.6 +28.9 65 +60 +68 опасность
перегрева
1013.0 1012.4
00 12.08 С 1 10 км 3/0
[Ac trans]
+31.7 +28.7 84 +54 +54 опасность
перегрева
1012.5 1011.9 +22.3 +37.0
03 12.08 В 1 6000 м ясно +28.6 +24.7 79 +41 +41 опасность
перегрева
1014.6 1014.0
06 12.08 ЮВ 1 6000 м ясно +26.8 +23.8 84 +37 +37 очень
душно
1015.9 1015.3 +22.3 +37.0
09 12.08 ЮВ 1 10 км ясно +25.2 +23.8 92 +34 +34 очень
душно
1015.2 1014.6
12 12.08 ЮВ 1 10 км 1/0
[Ac und]
+24.6 +24.1 97 +34 +34 очень
душно
1015.5 1014.9 +24.5 +37.0
15 12.08 В 2 10 км ясно +31.2 +27.3 80 +50 +61 опасность
перегрева
1016.6 1016.0
00 13.08 ЮВ 1 10 км 9/0
[Ac As]
+25.8 +24.0 90 +36 +36 очень
душно
1014.4 1013.8 +24.5 +36.3
03 13.08 В 2 6000 м ясно +25.7 +23.2 86 +34 +34 очень
душно
1014.8 1014.2
06 13.08 В 2 6000 м ясно +24.8 +22.7 88 +33 +33 очень
душно
1016.4 1015.8 +24.5 +36.3
09 13.08 СВ 1 6000 м ясно +23.0 +22.0 94 +31 +31 очень
душно
1015.5 1014.9
12 13.08 В 2 10 км 1/0
[Ci fib]
+23.2 +22.4 95 +32 +32 очень
душно
1015.6 1015.0 +22.9 +36.3
15 13.08 В 2 10 км 1/1 480 м
[Cu hum]
+30.0 +26.6 82 +46 +57 опасность
перегрева
1016.2 1015.6
18 13.08 В 3 10 км 4/4 800 м
[Cu med, cong]
+33.7 +28.1 73 +55 +66 опасность
перегрева
1015.1 1014.5 +22.9 +34.0
00 14.08 СЗ 1 8000 м в посл. час морось {дождь} 10/5 300 м
[Sc diur, vesp As op]
+25.8 +24.4 92 +36 +36 очень
душно
1014.3 1013.7 11
03 14.08 СВ 2 6000 м {морось} 4/0
[As op]
+24.5 +23.7 95 +33 +33 очень
душно
1015.0 1014.5 0.2
06 14.08 ЮВ 1 6000 м {морось} ясно +25.8 +23.0 85 +34 +34 очень
душно
1015.3 1014.4 +22.9 +36.1 0.2
09 14.08 штиль 0 6000 м ясно +22.6 +22.0 96 +30 +30 очень
душно
1014.7 1014.1
12 14.08 В 1 10 км 1/0
[Ac trans]
+22.6 +22.0 96 +30 +30 очень
душно
1014.6 1014.0 +22.6 +36.1
15 14.08 В 2 10 км 1/1 360 м
[Cu hum]
+29.4 +26.8 86 +46 +56 опасность
перегрева
1015.3 1014.7
18 14.08 ЮВ 1 10 км 3/3 720 м
[Cu hum]
+33.9 +29.0 76 +58 +76 опасность
перегрева
1014.3 1013.7 +22.6 +35.0
21 14.08 СЗ 1 7000 м осадки на расстоянии 4/4 840 м
[Cu med, cong]
+32.5 +28.4 79 +54 +63 опасность
перегрева
1011.9 1011.3 0.5
00 15.08 СЗ 2 10 км {морось} 5/4 600 м
[Cu med, cong Ci sp]
+30.1 +27.5 86 +49 +49 опасность
перегрева
1012.4 1011.8 0.5
03 15.08 штиль 0 6000 м ясно +27.0 +26.2 95 +41 +41 опасность
перегрева
1014.2 1013.7
06 15.08 В 1 6000 м ясно +26.0 +24.4 91 +36 +36 очень
душно
1015.4 1014.8 +22.6 +36.9
09 15.08 ЮВ 1 6000 м ясно +23.8 +23.2 96 +32 +32 очень
душно
1013.7 1013.2
12 15.08 СВ 1 10 км 3/3 90 м
[St]
+23.4 +22.8 96 +33 +33 очень
душно
1014.4 1013.8 +23.2 +36.9
15 15.08 В 2 10 км 1/1 570 м
[Cu hum]
+29.8 +25.5 78 +44 +54 опасность
перегрева
1016.0 1015.4
18 15.08 В 2 10 км 4/4 500 м
[Cu med, cong]
+35.2 +30.0 75 +62 +76 опасность
перегрева
1015.4 1014.8 +23.2 +35.8
21 15.08 С 2 10 км в посл. час дождь 5/5 120 м
[Cu med, cong]
+29.8 +28.4 92 +50 +56 опасность
перегрева
1012.9 1012.3 3
00 16.08 СЗ 2 10 км в посл. час дождь {ливн. осадки} 6/3 600 м
[Cb cap As op]
+28.1 +26.5 91 +43 +43 опасность
перегрева
1013.6 1013.0 14
03 16.08 В 1 6000 м ясно +26.7 +26.2 97 +40 +40 очень
душно
1014.3 1013.7
09 16.08 В 1 6000 м ясно +24.4 +23.3 94 +33 +33 очень
душно
1014.4 1013.8
12 16.08 ЮВ 1 10 км 1/0
[Ci fib]
+22.6 +22.0 96 +30 +30 очень
душно
1015.2 1014.6 +22.6 +37.0
15 16.08 В 2 10 км 1/1 360 м
[Cu hum]
+30.2 +27.6 86 +49 +59 опасность
перегрева
1016.8 1016.2
18 16.08 штиль 0 10 км 8/8 90 м
[Cu med, cong]
+33.2 +32.2 95 +69 +75 опасность
перегрева
1016.4 1015.8 +22.5 +34.3
21 16.08 СЗ 2 10 км 9/3 420 м
[Cu med, cong Cs]
+30.2 +26.2 79 +46 +52 опасность
перегрева
1014.3 1013.8
00 17.08 СВ 4 8000 м гроза, ливневой дождь 10/5 300 м
[Cb calv As op]
+24.9 +23.7 93 +34 +34 очень
душно
1016.6 1016.1 1
03 17.08 С 1 6000 м в посл. час морось туман 10/1 570 м
[Cb cap As op]
+24.3 +23.2 94 +33 +33 очень
душно
1018.7 1018.1 1
06 17.08 В 1 6000 м ясно +23.4 +22.8 96 +33 +33 очень
душно
1017.3 1016.8 +22.5 +34.3 1
09 17.08 штиль 0 6000 м 3/0
[As trans]
+22.8 +22.2 96 +31 +31 очень
душно
1015.9 1015.3
12 17.08 ЮВ 1 10 км 8/0
[Ac und]
+22.8 +22.2 96 +31 +31 очень
душно
1016.0 1015.6 +22.1 +34.3
15 17.08 В 2 10 км 4/1 420 м
[Cu hum Ci]
+29.6 +26.4 83 +45 +55 опасность
перегрева
1017.7 1017.1
18 17.08 СВ 2 10 км 4/3 800 м
[Cu med, cong Cs]
+32.2 +27.4 76 +51 +66 опасность
перегрева
1016.6 1016.0 +22.1 +33.1
00 18.08 С 1 8000 м слабый дождь {гроза, ливн. осадки} 10/1 300 м
[Frnb Ac As]
+24.5 +24.0 97 +34 +34 очень
душно
1017.1 1016.5 72
03 18.08 СВ 2 6000 м 10/0
[As op]
+24.3 +23.8 97 +33 +33 очень
душно
1018.2 1017.7 1
06 18.08 В 2 1000 м в посл. час туман 10/10 100 м
[St]
+23.8 +23.2 96 +32 +32 очень
душно
1017.9 1017.3 1
09 18.08 В 1 6000 м 10/10 120 м
[St]
+23.8 +23.2 96 +32 +32 очень
душно
1017.2 1016.6
12 18.08 В 1 10 км 10/10 120 м
[St]
+24.0 +23.4 96 +32 +32 очень
душно
1017.1 1016.5 +23.1 +33.4

 

Местоположение метеостанции Campeche (Мексика): широта 19.85 долгота -90.55 высота над уровнем моря 5 м.

В архиве по умолчанию представлена погода в Campeche за последнюю неделю. Архивные данные за месяц целиком и за предыдущие месяцы, начиная с января 2011 года, Вы можете получить, выбрав интересующий диапазон дат из раскрывающегося списка и нажав кнопку "Ввод!".


*Определитесь, кто Вы:
робот инопланетянин человек

Внимание! Время в таблицах - всемирное. Для получения местного времени необходимо прибавить поправку, которая в Campeche равна -6 ч.

Смотрите также архив погоды в соседних городах и на ближайших метеорологических станциях:

Погода в Merida 2 (Мексика) (156 км)
Погода в Merida (Мексика) (157 км)
Погода в Progreso (Мексика) (187 км)
Погода в Valladolid (Мексика) (262 км)
Погода в Felipe Carrillo Puerto (Мексика) (278 км)
Погода в Chetumal (Мексика) (281 км)
Погода в Villahermosa (Мексика) (326 км)
Погода в Flores (Гватемала) (333 км)
Погода в Belize (Белиз) (350 км)
Погода в Sn. Cristobal Las Casas (Мексика) (409 км)

Пояснения к столбцам:

Ветер - указаны скорость ветра в м/с - средняя за 10 мин, порывы в срок и между сроками (в фигурных скобках) и направление, откуда дует ветер: С - северный, СВ - северо-восточный, В - восточный, ЮВ - юго-восточный, Ю - южный, ЮЗ - юго-западный, З - западный, СЗ - северо-западный.
Видимость - горизонтальная дальность видимости в метрах или километрах. При видимости от 1 до 10 км при отсутствии осадков обычно наблюдается дымка, при ухудшении видимости до 1 км и менее - туман. В сухую погоду видимость может ухудшаться дымом, пылью или мглою.
Явления - указаны атмосферные явления, наблюдавшиеся в срок или в последний час перед сроком; фигурными скобками обозначены явления, наблюдавшиеся между сроками (за 1-3 часа до срока); квадратными скобками обозначены град или гололедные отложения с указанием их диаметра в мм.
Облачность - указаны через наклонную черту общая и нижняя облачность в баллах и высота нижней границы облаков в метрах; квадратными скобками обозначены формы облаков: Ci - перистые, Cs - перисто-слоистые, Cc - перисто-кучевые, Ac - высококучевые, As - высокослоистые, Sc - слоисто-кучевые, Ns - слоисто-дождевые, Cu - кучевые, Cb - кучево-дождевые. Подробнее классификацию облаков см. в Атласе облаков (PDF).
T - Температура воздуха - температура, измеренная на высоте 2 м над землей.
Td - Температура точки росы - температура, при понижении до которой содержащийся в воздухе водяной пар достигнет насыщения.
f - Относительная влажность воздуха - влажноcть воздуха, измеренная на высоте 2 м над землей.
Te - Эффективная температура - температура, которую ощущает одетый по сезону человек в тени. Характеристика душности погоды. При расчете учитывается влияние влажности воздуха и скорости ветра на теплоощущения человека.
Tes - Эффективная температура на солнце - температура, которую ощущает человек, с поправкой на солнечный нагрев. Характеристика знойности погоды. Зависит от высоты солнца над горизонтом, облачности и скорости ветра. Ночью, в пасмурную погоду, а также при ветре 12 м/с и более поправка равна нулю.
P - Атмосферное давление - приведенное к уровню моря атмосферное давление.
Po - Атмосферное давление - измеренное на уровне метеостанции атмосферное давление.
Tmin - Минимальная температура - минимум температуры воздуха на высоте 2 м над землей.
Tmax - Максимальная температура - максимум температуры воздуха на высоте 2 м над землей.
R - Количество осадков - Количество выпавших осадков за период времени, мм. При наведении курсора мыши на число - период времени, за который выпало указанное количество осадков.
R24 - Количество осадков - Количество выпавших осадков за 24 часа, мм.
S - Снежный покров - Высота снежного покрова, см. При наведении курсора мыши на число - состояние снежного покрова и степень покрытия местности в баллах.